Time,TemperatureF,DewpointF,PressureIn,WindDirection,WindDirectionDegrees,WindSpeedMPH,WindSpeedGustMPH,Humidity,HourlyPrecipIn,Conditions,Clouds,dailyrainin,SolarRadiationWatts/m^2,SoftwareType,DateUTC
2013-08-18 00:00:00,67.4,65.3,30.32,SW,220,0.0,0.0,93,0.00,,SCT,0.00,0.00,VWS V14.01,2013-08-18 04:00:00,
2013-08-18 00:01:00,67.4,65.3,30.32,SW,220,0.0,0.0,93,0.00,,SCT,0.00,0.00,VWS V14.01,2013-08-18 04:01:00,
2013-08-18 00:06:00,67.2,65.1,30.32,SW,220,0.0,0.0,93,0.00,,SCT,0.00,0.00,VWS V14.01,2013-08-18 04:06:00,
2013-08-18 00:11:00,67.2,65.1,30.32,SW,220,0.0,0.0,93,0.00,,SCT,0.00,0.00,VWS V14.01,2013-08-18 04:11:00,
2013-08-18 00:16:00,67.2,65.1,30.32,SW,220,0.0,0.0,93,0.00,,SCT,0.00,0.00,VWS V14.01,2013-08-18 04:16:00,
2013-08-18 00:21:00,67.1,65.0,30.32,SW,219,0.0,0.0,93,0.00,,SCT,0.00,0.00,VWS V14.01,2013-08-18 04:21:00,
2013-08-18 00:26:00,67.0,64.9,30.32,SW,220,0.0,0.0,93,0.00,,SCT,0.00,0.00,VWS V14.01,2013-08-18 04:26:00,
2013-08-18 00:31:00,67.0,64.9,30.32,SW,218,0.0,0.0,93,0.00,,SCT,0.00,0.00,VWS V14.01,2013-08-18 04:31:00,
2013-08-18 00:36:00,67.0,64.9,30.32,SSW,198,0.0,0.0,93,0.00,,SCT,0.00,0.00,VWS V14.01,2013-08-18 04:36:00,
2013-08-18 00:41:00,67.1,64.7,30.32,SSE,164,0.0,0.0,92,0.00,,SCT,0.00,0.00,VWS V14.01,2013-08-18 04:41:00,
2013-08-18 00:46:00,67.1,65.0,30.32,SSW,198,0.0,0.0,93,0.00,,SCT,0.00,0.00,VWS V14.01,2013-08-18 04:46:00,
2013-08-18 00:51:00,67.2,65.1,30.32,SSW,198,0.0,0.0,93,0.00,,SCT,0.00,0.00,VWS V14.01,2013-08-18 04:51:00,
2013-08-18 00:56:00,67.2,64.8,30.32,South,190,0.0,0.0,92,0.00,,SCT,0.00,0.00,VWS V14.01,2013-08-18 04:56:00,
2013-08-18 01:00:00,67.2,65.1,30.32,SSW,198,0.0,0.0,93,0.00,,SCT,0.00,0.00,VWS V14.01,2013-08-18 05:00:00,
2013-08-18 01:01:00,67.1,65.0,30.32,South,190,0.0,0.0,93,0.00,,SCT,0.00,0.00,VWS V14.01,2013-08-18 05:01:00,
2013-08-18 01:06:00,67.1,64.7,30.32,SSW,194,0.0,0.0,92,0.00,,SCT,0.00,0.00,VWS V14.01,2013-08-18 05:06:00,
2013-08-18 01:11:00,67.0,64.9,30.31,SSW,194,0.0,0.0,93,0.00,,SCT,0.00,0.00,VWS V14.01,2013-08-18 05:11:00,
2013-08-18 01:16:00,66.9,64.8,30.32,SSW,205,0.0,0.0,93,0.00,,SCT,0.00,0.00,VWS V14.01,2013-08-18 05:16:00,
2013-08-18 01:21:00,66.8,64.7,30.32,SSW,205,0.0,0.0,93,0.00,,SCT,0.00,0.00,VWS V14.01,2013-08-18 05:21:00,
2013-08-18 01:26:00,66.7,64.9,30.32,SSW,205,0.0,0.0,94,0.00,,SCT,0.00,0.00,VWS V14.01,2013-08-18 05:26:00,
2013-08-18 01:31:00,66.6,64.8,30.32,SSW,205,0.0,0.0,94,0.00,,SCT,0.00,0.00,VWS V14.01,2013-08-18 05:31:00,
2013-08-18 01:36:00,66.5,64.7,30.32,SSW,205,0.0,0.0,94,0.00,,SCT,0.00,0.00,VWS V14.01,2013-08-18 05:36:00,
2013-08-18 01:41:00,66.5,64.7,30.32,SSW,205,0.0,0.0,94,0.00,,SCT,0.00,0.00,VWS V14.01,2013-08-18 05:41:00,
2013-08-18 01:46:00,66.5,64.7,30.32,SSW,205,0.0,0.0,94,0.00,,SCT,0.00,0.00,VWS V14.01,2013-08-18 05:46:00,
2013-08-18 01:51:00,66.4,64.6,30.31,SSW,205,0.0,0.0,94,0.00,,SCT,0.00,0.00,VWS V14.01,2013-08-18 05:51:00,
2013-08-18 01:56:00,66.3,64.5,30.31,SSW,205,0.0,0.0,94,0.00,,SCT,0.00,0.00,VWS V14.01,2013-08-18 05:56:00,
2013-08-18 02:00:00,66.4,64.6,30.31,SSW,205,0.0,0.0,94,0.00,,SCT,0.00,0.00,VWS V14.01,2013-08-18 06:00:00,
2013-08-18 02:01:00,66.2,64.7,30.31,SSW,205,0.0,0.0,95,0.00,,SCT,0.00,0.00,VWS V14.01,2013-08-18 06:01:00,
2013-08-18 02:06:00,66.2,64.7,30.31,SSW,205,0.0,0.0,95,0.00,,SCT,0.00,0.00,VWS V14.01,2013-08-18 06:06:00,
2013-08-18 02:11:00,66.1,64.6,30.31,SSW,205,0.0,0.0,95,0.00,,SCT,0.00,0.00,VWS V14.01,2013-08-18 06:11:00,
2013-08-18 02:16:00,66.0,64.5,30.31,SSW,205,0.0,0.0,95,0.00,,SCT,0.00,0.00,VWS V14.01,2013-08-18 06:16:00,
2013-08-18 02:21:00,65.9,64.4,30.31,SSW,205,0.0,0.0,95,0.00,,SCT,0.00,0.00,VWS V14.01,2013-08-18 06:21:00,
2013-08-18 02:26:00,65.9,64.4,30.31,SSW,205,0.0,0.0,95,0.00,,SCT,0.00,0.00,VWS V14.01,2013-08-18 06:26:00,
2013-08-18 02:31:00,65.8,64.6,30.31,SSW,205,0.0,0.0,96,0.00,,SCT,0.00,0.00,VWS V14.01,2013-08-18 06:31:00,
2013-08-18 02:36:00,65.8,64.6,30.31,SSW,205,0.0,0.0,96,0.00,,SCT,0.00,0.00,VWS V14.01,2013-08-18 06:36:00,
2013-08-18 02:41:00,65.8,64.6,30.31,SSW,205,0.0,0.0,96,0.00,,SCT,0.00,0.00,VWS V14.01,2013-08-18 06:41:00,
2013-08-18 02:46:00,65.8,64.6,30.31,SSE,149,0.0,0.0,96,0.00,,SCT,0.00,0.00,VWS V14.01,2013-08-18 06:46:00,
2013-08-18 02:51:00,65.7,64.5,30.31,SSE,156,0.0,0.0,96,0.00,,SCT,0.00,0.00,VWS V14.01,2013-08-18 06:51:00,
2013-08-18 02:56:00,65.7,64.5,30.31,South,181,0.0,0.0,96,0.00,,SCT,0.00,0.00,VWS V14.01,2013-08-18 06:56:00,
2013-08-18 03:00:00,65.7,64.5,30.31,SSE,156,0.0,0.0,96,0.00,,SCT,0.00,0.00,VWS V14.01,2013-08-18 07:00:00,
2013-08-18 03:01:00,65.6,64.4,30.30,SSE,159,0.0,0.0,96,0.00,,SCT,0.00,0.00,VWS V14.01,2013-08-18 07:01:00,
2013-08-18 03:06:00,65.6,64.4,30.30,SSE,159,0.0,0.0,96,0.00,,SCT,0.00,0.00,VWS V14.01,2013-08-18 07:06:00,
2013-08-18 03:11:00,65.5,64.3,30.30,SSE,161,0.0,0.0,96,0.00,,SCT,0.00,0.00,VWS V14.01,2013-08-18 07:11:00,
2013-08-18 03:16:00,65.4,64.2,30.30,SSE,162,0.0,0.0,96,0.00,,SCT,0.00,0.00,VWS V14.01,2013-08-18 07:16:00,
2013-08-18 03:21:00,65.4,64.2,30.30,South,180,0.0,0.0,96,0.00,,SCT,0.00,0.00,VWS V14.01,2013-08-18 07:21:00,
2013-08-18 03:26:00,65.4,64.2,30.30,SSE,165,0.0,0.0,96,0.00,,SCT,0.00,0.00,VWS V14.01,2013-08-18 07:26:00,
2013-08-18 03:31:00,65.3,64.1,30.30,SSE,154,0.0,0.0,96,0.00,,SCT,0.00,0.00,VWS V14.01,2013-08-18 07:31:00,
2013-08-18 03:36:00,65.3,64.1,30.30,SSE,164,0.0,0.0,96,0.00,,SCT,0.00,0.00,VWS V14.01,2013-08-18 07:36:00,
2013-08-18 03:41:00,65.3,64.1,30.30,SSE,164,0.0,0.0,96,0.00,,SCT,0.00,0.00,VWS V14.01,2013-08-18 07:41:00,
2013-08-18 03:46:00,65.3,64.1,30.30,SSE,166,0.0,0.0,96,0.00,,SCT,0.00,0.00,VWS V14.01,2013-08-18 07:46:00,
2013-08-18 03:51:00,65.3,64.1,30.30,South,182,0.0,0.0,96,0.00,,SCT,0.00,0.00,VWS V14.01,2013-08-18 07:51:00,
2013-08-18 03:56:00,65.3,64.1,30.29,SSW,193,0.0,0.0,96,0.00,,SCT,0.00,0.00,VWS V14.01,2013-08-18 07:56:00,
2013-08-18 04:00:00,65.3,64.1,30.29,South,182,0.0,0.0,96,0.00,,SCT,0.00,0.00,VWS V14.01,2013-08-18 08:00:00,
2013-08-18 04:01:00,65.2,64.3,30.29,SSW,207,0.0,0.0,97,0.00,,SCT,0.00,0.00,VWS V14.01,2013-08-18 08:01:00,
2013-08-18 04:06:00,65.3,64.4,30.29,South,190,0.0,0.0,97,0.00,,SCT,0.00,0.00,VWS V14.01,2013-08-18 08:06:00,
2013-08-18 04:11:00,65.2,64.3,30.29,South,187,0.0,0.0,97,0.00,,SCT,0.00,0.00,VWS V14.01,2013-08-18 08:11:00,
2013-08-18 04:16:00,65.1,64.2,30.29,SSW,200,0.0,0.0,97,0.00,,SCT,0.00,0.00,VWS V14.01,2013-08-18 08:16:00,
2013-08-18 04:21:00,65.1,64.2,30.29,SSW,203,0.0,0.0,97,0.00,,SCT,0.00,0.00,VWS V14.01,2013-08-18 08:21:00,
2013-08-18 04:26:00,65.0,63.8,30.29,SW,216,0.0,0.0,96,0.00,,SCT,0.00,0.00,VWS V14.01,2013-08-18 08:26:00,
2013-08-18 04:31:00,64.8,63.6,30.29,SW,224,0.0,0.0,96,0.00,,SCT,0.00,0.00,VWS V14.01,2013-08-18 08:31:00,
2013-08-18 04:36:00,64.6,63.7,30.29,SSW,209,0.0,0.0,97,0.00,,SCT,0.00,0.00,VWS V14.01,2013-08-18 08:36:00,
2013-08-18 04:41:00,64.4,63.5,30.28,SW,217,0.0,0.0,97,0.00,,SCT,0.00,0.00,VWS V14.01,2013-08-18 08:41:00,
2013-08-18 04:46:00,64.3,63.1,30.29,SSW,210,0.0,0.0,96,0.00,,SCT,0.00,0.00,VWS V14.01,2013-08-18 08:46:00,
2013-08-18 04:51:00,64.3,63.4,30.29,SSW,195,0.0,0.0,97,0.00,,SCT,0.00,0.00,VWS V14.01,2013-08-18 08:51:00,
2013-08-18 04:56:00,64.2,63.3,30.29,SSW,211,0.0,0.0,97,0.00,,SCT,0.00,0.00,VWS V14.01,2013-08-18 08:56:00,
2013-08-18 05:00:00,64.3,63.4,30.29,SSW,193,0.0,0.0,97,0.00,,SCT,0.00,0.00,VWS V14.01,2013-08-18 09:00:00,
2013-08-18 05:01:00,64.1,63.2,30.29,South,183,0.0,0.0,97,0.00,,SCT,0.00,0.00,VWS V14.01,2013-08-18 09:01:00,
2013-08-18 05:06:00,64.1,63.2,30.29,South,178,0.0,0.0,97,0.00,,SCT,0.00,0.00,VWS V14.01,2013-08-18 09:06:00,
2013-08-18 05:11:00,64.0,63.1,30.29,SSW,207,0.0,0.0,97,0.00,,SCT,0.00,0.00,VWS V14.01,2013-08-18 09:11:00,
2013-08-18 05:16:00,63.9,63.0,30.29,SW,223,0.0,0.0,97,0.00,,SCT,0.00,0.00,VWS V14.01,2013-08-18 09:16:00,
2013-08-18 05:21:00,63.9,63.0,30.30,South,183,0.0,0.0,97,0.00,,SCT,0.00,0.00,VWS V14.01,2013-08-18 09:21:00,
2013-08-18 05:26:00,63.9,63.0,30.30,SSW,197,0.0,0.0,97,0.00,,SCT,0.00,0.00,VWS V14.01,2013-08-18 09:26:00,
2013-08-18 05:31:00,63.8,62.9,30.30,SSW,209,0.0,0.0,97,0.00,,SCT,0.00,0.00,VWS V14.01,2013-08-18 09:31:00,
2013-08-18 05:36:00,63.8,62.9,30.30,SSW,195,0.0,0.0,97,0.00,,SCT,0.00,0.00,VWS V14.01,2013-08-18 09:36:00,
2013-08-18 05:41:00,63.8,62.9,30.30,SSW,200,0.0,0.0,97,0.00,,SCT,0.00,0.00,VWS V14.01,2013-08-18 09:41:00,
2013-08-18 05:46:00,63.7,62.8,30.30,South,184,0.0,0.0,97,0.00,,SCT,0.00,0.00,VWS V14.01,2013-08-18 09:46:00,
2013-08-18 05:51:00,63.7,62.8,30.29,SSW,206,0.0,0.0,97,0.00,,SCT,0.00,0.00,VWS V14.01,2013-08-18 09:51:00,
2013-08-18 05:56:00,63.6,62.7,30.29,SSW,207,0.0,0.0,97,0.00,,SCT,0.00,0.00,VWS V14.01,2013-08-18 09:56:00,
2013-08-18 06:00:00,63.6,62.7,30.29,SSW,202,0.0,0.0,97,0.00,,SCT,0.00,0.00,VWS V14.01,2013-08-18 10:00:00,
2013-08-18 06:01:00,63.5,62.6,30.29,SSW,194,0.0,0.0,97,0.00,,SCT,0.00,0.00,VWS V14.01,2013-08-18 10:01:00,
2013-08-18 06:06:00,63.5,62.6,30.29,SSW,208,0.0,0.0,97,0.00,,SCT,0.00,0.00,VWS V14.01,2013-08-18 10:06:00,
2013-08-18 06:11:00,63.4,62.5,30.29,SSW,199,0.0,0.0,97,0.00,,SCT,0.00,0.00,VWS V14.01,2013-08-18 10:11:00,
2013-08-18 06:16:00,63.4,62.5,30.29,SSW,199,0.0,0.0,97,0.00,,SCT,0.00,0.00,VWS V14.01,2013-08-18 10:16:00,
2013-08-18 06:21:00,63.5,62.6,30.29,SSW,194,0.0,0.0,97,0.00,,SCT,0.00,0.00,VWS V14.01,2013-08-18 10:21:00,
2013-08-18 06:26:00,63.5,62.6,30.30,SSW,194,0.0,0.0,97,0.00,,SCT,0.00,0.00,VWS V14.01,2013-08-18 10:26:00,
2013-08-18 06:31:00,63.5,62.6,30.30,SSW,194,0.0,0.0,97,0.00,,SCT,0.00,0.00,VWS V14.01,2013-08-18 10:31:00,
2013-08-18 06:36:00,63.5,62.6,30.31,SSW,194,0.0,0.0,97,0.00,,SCT,0.00,0.00,VWS V14.01,2013-08-18 10:36:00,
2013-08-18 06:41:00,63.5,62.6,30.31,SSW,194,0.0,0.0,97,0.00,,SCT,0.00,0.00,VWS V14.01,2013-08-18 10:41:00,
2013-08-18 06:46:00,63.5,62.6,30.31,SSW,194,0.0,0.0,97,0.00,,SCT,0.00,0.00,VWS V14.01,2013-08-18 10:46:00,
2013-08-18 06:51:00,63.4,62.5,30.31,SSW,202,0.0,0.0,97,0.00,,SCT,0.00,0.00,VWS V14.01,2013-08-18 10:51:00,
2013-08-18 06:56:00,63.3,62.4,30.31,SSW,213,0.0,0.0,97,0.00,,SCT,0.00,0.00,VWS V14.01,2013-08-18 10:56:00,
2013-08-18 07:00:00,63.4,62.5,30.31,South,188,0.0,0.0,97,0.00,,SCT,0.00,0.00,VWS V14.01,2013-08-18 11:00:00,
2013-08-18 07:01:00,63.2,62.3,30.31,South,175,0.0,0.0,97,0.00,,SCT,0.00,0.00,VWS V14.01,2013-08-18 11:01:00,
2013-08-18 07:06:00,63.0,62.1,30.31,SSW,202,0.0,0.0,97,0.00,,SCT,0.00,0.00,VWS V14.01,2013-08-18 11:06:00,
2013-08-18 07:11:00,62.9,62.0,30.31,SSW,209,0.0,0.0,97,0.00,,SCT,0.00,0.00,VWS V14.01,2013-08-18 11:11:00,
2013-08-18 07:16:00,62.8,61.9,30.31,SE,140,0.0,0.0,97,0.00,,SCT,0.00,5.00,VWS V14.01,2013-08-18 11:16:00,
2013-08-18 07:21:00,62.8,61.9,30.31,South,188,0.0,0.0,97,0.00,,SCT,0.00,5.00,VWS V14.01,2013-08-18 11:21:00,
2013-08-18 07:26:00,62.7,61.8,30.31,SSE,156,0.0,0.0,97,0.00,,SCT,0.00,0.00,VWS V14.01,2013-08-18 11:26:00,
2013-08-18 07:31:00,62.7,61.8,30.31,South,181,0.0,0.0,97,0.00,,SCT,0.00,7.00,VWS V14.01,2013-08-18 11:31:00,
2013-08-18 07:36:00,62.7,61.8,30.31,SSW,195,0.0,0.0,97,0.00,,SCT,0.00,9.00,VWS V14.01,2013-08-18 11:36:00,
2013-08-18 07:41:00,62.6,61.7,30.31,South,173,0.0,0.0,97,0.00,,SCT,0.00,9.00,VWS V14.01,2013-08-18 11:41:00,
2013-08-18 07:46:00,62.5,61.6,30.31,South,174,0.0,0.0,97,0.00,,SCT,0.00,14.00,VWS V14.01,2013-08-18 11:46:00,
2013-08-18 07:51:00,62.5,61.6,30.32,SE,144,0.0,0.0,97,0.00,,SCT,0.00,16.00,VWS V14.01,2013-08-18 11:51:00,
2013-08-18 07:56:00,62.4,61.5,30.32,South,190,0.0,0.0,97,0.00,,SCT,0.00,12.00,VWS V14.01,2013-08-18 11:56:00,
2013-08-18 08:00:00,62.5,61.6,30.32,South,180,0.0,0.0,97,0.00,,SCT,0.00,18.00,VWS V14.01,2013-08-18 12:00:00,
2013-08-18 08:01:00,62.4,61.5,30.32,South,175,0.0,0.0,97,0.00,,SCT,0.00,11.00,VWS V14.01,2013-08-18 12:01:00,
2013-08-18 08:06:00,62.4,61.5,30.32,SE,146,0.0,0.0,97,0.00,,SCT,0.00,9.00,VWS V14.01,2013-08-18 12:06:00,
2013-08-18 08:11:00,62.4,61.5,30.32,SSE,165,0.0,0.0,97,0.00,,SCT,0.00,9.00,VWS V14.01,2013-08-18 12:11:00,
2013-08-18 08:16:00,62.4,61.5,30.33,SSW,196,0.0,0.0,97,0.00,,SCT,0.00,9.00,VWS V14.01,2013-08-18 12:16:00,
2013-08-18 08:21:00,62.5,61.6,30.33,SSE,148,0.0,0.0,97,0.00,,SCT,0.00,16.00,VWS V14.01,2013-08-18 12:21:00,
2013-08-18 08:26:00,62.5,61.6,30.33,SSW,208,0.0,0.0,97,0.00,,SCT,0.00,21.00,VWS V14.01,2013-08-18 12:26:00,
2013-08-18 08:31:00,62.5,61.6,30.33,SSW,212,0.0,0.0,97,0.00,,SCT,0.00,21.00,VWS V14.01,2013-08-18 12:31:00,
2013-08-18 08:36:00,62.5,61.6,30.33,South,182,0.0,0.0,97,0.00,,SCT,0.00,18.00,VWS V14.01,2013-08-18 12:36:00,
2013-08-18 08:41:00,62.6,61.7,30.33,SSE,150,0.0,0.0,97,0.00,,SCT,0.00,21.00,VWS V14.01,2013-08-18 12:41:00,
2013-08-18 08:46:00,62.5,61.6,30.33,South,180,0.0,0.0,97,0.00,,SCT,0.00,19.00,VWS V14.01,2013-08-18 12:46:00,
2013-08-18 08:51:00,62.6,61.7,30.34,South,177,0.0,0.0,97,0.00,,SCT,0.00,19.00,VWS V14.01,2013-08-18 12:51:00,
2013-08-18 08:56:00,62.6,61.7,30.34,SSW,211,0.0,0.0,97,0.00,,SCT,0.00,19.00,VWS V14.01,2013-08-18 12:56:00,
2013-08-18 09:00:00,62.6,61.7,30.34,SSW,197,0.0,0.0,97,0.00,,SCT,0.00,18.00,VWS V14.01,2013-08-18 13:00:00,
2013-08-18 09:01:00,62.5,61.6,30.34,South,171,0.0,0.0,97,0.00,,SCT,0.00,26.00,VWS V14.01,2013-08-18 13:01:00,
2013-08-18 09:06:00,62.5,61.6,30.34,South,186,0.0,0.0,97,0.00,,SCT,0.00,39.00,VWS V14.01,2013-08-18 13:06:00,
2013-08-18 09:11:00,62.5,61.6,30.34,SSE,168,0.0,0.0,97,0.00,,SCT,0.00,26.00,VWS V14.01,2013-08-18 13:11:00,
2013-08-18 09:16:00,62.5,61.6,30.34,South,169,0.0,0.0,97,0.00,,SCT,0.00,40.00,VWS V14.01,2013-08-18 13:16:00,
2013-08-18 09:21:00,62.5,61.6,30.34,SW,214,0.0,0.0,97,0.00,,SCT,0.00,51.00,VWS V14.01,2013-08-18 13:21:00,
2013-08-18 09:26:00,62.5,61.6,30.34,SE,141,0.0,0.0,97,0.00,,SCT,0.00,37.00,VWS V14.01,2013-08-18 13:26:00,
2013-08-18 09:31:00,62.4,61.5,30.34,SSW,196,0.0,0.0,97,0.00,,SCT,0.00,28.00,VWS V14.01,2013-08-18 13:31:00,
2013-08-18 09:36:00,62.4,61.5,30.34,South,190,0.0,0.0,97,0.00,,SCT,0.00,46.00,VWS V14.01,2013-08-18 13:36:00,
2013-08-18 09:41:00,62.4,61.5,30.33,SSW,196,0.0,0.0,97,0.00,,SCT,0.00,53.00,VWS V14.01,2013-08-18 13:41:00,
2013-08-18 09:46:00,62.2,61.3,30.34,South,181,0.0,0.0,97,0.00,,SCT,0.00,42.00,VWS V14.01,2013-08-18 13:46:00,
2013-08-18 09:51:00,62.2,61.3,30.34,South,169,0.0,0.0,97,0.00,,SCT,0.00,51.00,VWS V14.01,2013-08-18 13:51:00,
2013-08-18 09:56:00,62.1,61.2,30.34,SSW,194,0.0,0.0,97,0.00,,SCT,0.00,53.00,VWS V14.01,2013-08-18 13:56:00,
2013-08-18 10:00:00,62.2,61.3,30.34,SSW,198,0.0,0.0,97,0.00,,SCT,0.00,47.00,VWS V14.01,2013-08-18 14:00:00,
2013-08-18 10:01:00,62.1,61.2,30.34,SSW,202,0.0,0.0,97,0.00,,SCT,0.00,69.00,VWS V14.01,2013-08-18 14:01:00,
2013-08-18 10:06:00,62.1,61.2,30.34,South,169,0.0,0.0,97,0.00,,SCT,0.00,65.00,VWS V14.01,2013-08-18 14:06:00,
2013-08-18 10:11:00,62.1,61.2,30.34,SSW,203,0.0,0.0,97,0.00,,SCT,0.00,67.00,VWS V14.01,2013-08-18 14:11:00,
2013-08-18 10:16:00,62.1,61.2,30.34,South,188,0.0,0.0,97,0.00,,SCT,0.00,72.00,VWS V14.01,2013-08-18 14:16:00,
2013-08-18 10:21:00,62.1,61.2,30.34,SW,221,0.0,0.0,97,0.00,,SCT,0.00,102.00,VWS V14.01,2013-08-18 14:21:00,
2013-08-18 10:26:00,62.1,61.2,30.35,South,185,0.0,0.0,97,0.00,,SCT,0.00,95.00,VWS V14.01,2013-08-18 14:26:00,
2013-08-18 10:31:00,62.1,61.2,30.35,SSW,212,0.0,0.0,97,0.00,,SCT,0.00,95.00,VWS V14.01,2013-08-18 14:31:00,
2013-08-18 10:36:00,62.2,61.3,30.35,SSW,193,0.0,0.0,97,0.00,,SCT,0.00,88.00,VWS V14.01,2013-08-18 14:36:00,
2013-08-18 10:41:00,62.2,61.3,30.35,South,171,0.0,0.0,97,0.00,,SCT,0.00,95.00,VWS V14.01,2013-08-18 14:41:00,
2013-08-18 10:46:00,62.2,61.3,30.36,South,174,0.0,0.0,97,0.00,,SCT,0.00,84.00,VWS V14.01,2013-08-18 14:46:00,
2013-08-18 10:51:00,62.4,61.5,30.35,SSE,152,0.0,0.0,97,0.00,,SCT,0.00,127.00,VWS V14.01,2013-08-18 14:51:00,
2013-08-18 10:56:00,62.6,61.7,30.36,South,174,0.0,0.0,97,0.00,,SCT,0.00,125.00,VWS V14.01,2013-08-18 14:56:00,
2013-08-18 11:00:00,62.5,61.6,30.35,SSE,151,0.0,0.0,97,0.00,,SCT,0.00,141.00,VWS V14.01,2013-08-18 15:00:00,
2013-08-18 11:01:00,62.6,61.7,30.35,SE,125,0.0,0.0,97,0.00,,SCT,0.00,114.00,VWS V14.01,2013-08-18 15:01:00,
2013-08-18 11:06:00,62.7,61.8,30.36,SSW,199,0.0,0.0,97,0.00,,SCT,0.00,67.00,VWS V14.01,2013-08-18 15:06:00,
2013-08-18 11:11:00,62.7,61.8,30.36,South,183,0.0,0.0,97,0.00,,SCT,0.00,60.00,VWS V14.01,2013-08-18 15:11:00,
2013-08-18 11:16:00,62.7,61.8,30.36,South,173,0.0,0.0,97,0.00,,SCT,0.00,63.00,VWS V14.01,2013-08-18 15:16:00,
2013-08-18 11:21:00,62.8,61.9,30.36,South,185,0.0,0.0,97,0.00,,SCT,0.00,54.00,VWS V14.01,2013-08-18 15:21:00,
2013-08-18 11:26:00,62.8,61.9,30.36,South,184,0.0,0.0,97,0.00,,SCT,0.00,88.00,VWS V14.01,2013-08-18 15:26:00,
2013-08-18 11:31:00,62.9,62.0,30.36,South,181,0.0,0.0,97,0.00,,SCT,0.00,83.00,VWS V14.01,2013-08-18 15:31:00,
2013-08-18 11:36:00,62.9,62.0,30.36,South,182,0.0,0.0,97,0.00,,SCT,0.00,100.00,VWS V14.01,2013-08-18 15:36:00,
2013-08-18 11:41:00,63.0,62.1,30.36,South,182,0.0,0.0,97,0.00,,SCT,0.00,167.00,VWS V14.01,2013-08-18 15:41:00,
2013-08-18 11:46:00,63.1,62.2,30.35,South,182,0.0,0.0,97,0.00,,SCT,0.00,105.00,VWS V14.01,2013-08-18 15:46:00,
2013-08-18 11:51:00,63.2,62.3,30.35,South,182,0.0,0.0,97,0.00,,SCT,0.00,93.00,VWS V14.01,2013-08-18 15:51:00,
2013-08-18 11:56:00,63.3,62.4,30.35,SE,140,0.0,0.0,97,0.00,,SCT,0.00,77.00,VWS V14.01,2013-08-18 15:56:00,
2013-08-18 12:00:00,63.3,62.4,30.35,South,182,0.0,0.0,97,0.00,,SCT,0.00,91.00,VWS V14.01,2013-08-18 16:00:00,
2013-08-18 12:01:00,63.3,62.4,30.35,South,169,0.0,0.0,97,0.00,,SCT,0.00,113.00,VWS V14.01,2013-08-18 16:01:00,
2013-08-18 12:06:00,63.3,62.4,30.34,SSE,158,0.0,0.0,97,0.00,,SCT,0.00,183.00,VWS V14.01,2013-08-18 16:06:00,
2013-08-18 12:11:00,63.5,62.6,30.35,SSW,193,0.0,0.0,97,0.00,,SCT,0.00,176.00,VWS V14.01,2013-08-18 16:11:00,
2013-08-18 12:16:00,63.5,62.6,30.34,SSW,196,0.0,0.0,97,0.01,,SCT,0.01,227.00,VWS V14.01,2013-08-18 16:16:00,
2013-08-18 12:21:00,63.6,62.7,30.34,South,181,0.0,0.0,97,0.01,,SCT,0.01,279.00,VWS V14.01,2013-08-18 16:21:00,
2013-08-18 12:26:00,63.9,63.0,30.33,SSW,209,0.0,0.0,97,0.01,,SCT,0.01,209.00,VWS V14.01,2013-08-18 16:26:00,
2013-08-18 12:31:00,64.0,63.1,30.33,South,173,0.0,0.0,97,0.01,,SCT,0.01,276.00,VWS V14.01,2013-08-18 16:31:00,
2013-08-18 12:36:00,64.2,63.0,30.33,SSW,194,0.0,0.0,96,0.01,,SCT,0.01,257.00,VWS V14.01,2013-08-18 16:36:00,
2013-08-18 12:41:00,64.4,63.2,30.33,SSW,207,0.0,0.0,96,0.01,,SCT,0.01,183.00,VWS V14.01,2013-08-18 16:41:00,
2013-08-18 12:45:00,64.5,63.3,30.33,SSW,204,0.0,0.0,96,0.01,,SCT,0.01,206.00,VWS V14.01,2013-08-18 16:45:00,
2013-08-18 12:50:00,64.4,63.2,30.33,SSW,213,0.0,0.0,96,0.01,,SCT,0.01,118.00,VWS V14.01,2013-08-18 16:50:00,
2013-08-18 12:56:00,64.5,63.3,30.34,South,182,0.0,0.0,96,0.01,,SCT,0.01,137.00,VWS V14.01,2013-08-18 16:56:00,
2013-08-18 13:00:00,64.7,63.5,30.33,SSW,200,0.0,0.0,96,0.01,,SCT,0.01,160.00,VWS V14.01,2013-08-18 17:00:00,
2013-08-18 13:05:00,64.7,63.5,30.33,SSW,213,0.0,0.0,96,0.01,,SCT,0.01,163.00,VWS V14.01,2013-08-18 17:05:00,
2013-08-18 13:10:00,64.7,63.5,30.33,South,188,0.0,0.0,96,0.01,,SCT,0.01,148.00,VWS V14.01,2013-08-18 17:10:00,
2013-08-18 13:15:00,64.8,63.6,30.33,SSW,207,0.0,0.0,96,0.01,,SCT,0.01,97.00,VWS V14.01,2013-08-18 17:15:00,
2013-08-18 13:20:00,64.9,63.7,30.33,SSW,204,0.0,0.0,96,0.01,,SCT,0.01,105.00,VWS V14.01,2013-08-18 17:20:00,
2013-08-18 13:25:00,64.9,63.7,30.33,SSE,153,0.0,0.0,96,0.01,,SCT,0.01,95.00,VWS V14.01,2013-08-18 17:25:00,
2013-08-18 13:30:00,64.9,63.7,30.33,South,183,0.0,0.0,96,0.01,,SCT,0.01,88.00,VWS V14.01,2013-08-18 17:30:00,
2013-08-18 13:35:00,65.0,63.8,30.33,South,191,0.0,0.0,96,0.01,,SCT,0.01,114.00,VWS V14.01,2013-08-18 17:35:00,
2013-08-18 13:40:00,65.1,63.9,30.33,SSE,165,0.0,0.0,96,0.01,,SCT,0.01,123.00,VWS V14.01,2013-08-18 17:40:00,
2013-08-18 13:45:00,65.2,63.7,30.32,South,173,0.0,0.0,95,0.01,,SCT,0.01,135.00,VWS V14.01,2013-08-18 17:45:00,
2013-08-18 13:50:00,65.2,63.7,30.32,South,183,0.0,0.0,95,0.01,,SCT,0.01,130.00,VWS V14.01,2013-08-18 17:50:00,
2013-08-18 13:55:00,65.3,63.8,30.33,South,181,0.0,0.0,95,0.00,,SCT,0.01,167.00,VWS V14.01,2013-08-18 17:55:00,
2013-08-18 14:00:00,65.6,64.1,30.33,South,186,0.0,0.0,95,0.00,,SCT,0.01,163.00,VWS V14.01,2013-08-18 18:00:00,
2013-08-18 14:05:00,65.6,64.1,30.33,South,184,0.0,0.0,95,0.00,,SCT,0.01,232.00,VWS V14.01,2013-08-18 18:05:00,
2013-08-18 14:10:00,65.8,64.3,30.32,SSW,213,0.0,0.0,95,0.00,,SCT,0.01,250.00,VWS V14.01,2013-08-18 18:10:00,
2013-08-18 14:15:00,66.1,64.3,30.32,SSW,213,0.0,0.0,94,0.00,,SCT,0.01,227.00,VWS V14.01,2013-08-18 18:15:00,
2013-08-18 14:20:00,66.2,64.4,30.32,SW,218,0.0,0.0,94,0.00,,SCT,0.01,165.00,VWS V14.01,2013-08-18 18:20:00,
2013-08-18 14:25:00,66.3,64.5,30.32,South,184,0.0,0.0,94,0.00,,SCT,0.01,236.00,VWS V14.01,2013-08-18 18:25:00,
2013-08-18 14:30:00,66.4,64.3,30.32,SW,236,0.0,0.0,93,0.00,,SCT,0.01,179.00,VWS V14.01,2013-08-18 18:30:00,
2013-08-18 14:35:00,66.5,64.4,30.32,SW,222,0.0,0.0,93,0.00,,SCT,0.01,107.00,VWS V14.01,2013-08-18 18:35:00,
2013-08-18 14:40:00,66.5,64.4,30.32,SSW,196,0.0,0.0,93,0.01,,SCT,0.02,225.00,VWS V14.01,2013-08-18 18:40:00,
2013-08-18 14:45:00,66.7,64.6,30.32,South,184,0.0,0.0,93,0.01,,SCT,0.02,262.00,VWS V14.01,2013-08-18 18:45:00,
2013-08-18 14:50:00,66.8,64.4,30.32,SSW,202,0.0,0.0,92,0.01,,SCT,0.02,165.00,VWS V14.01,2013-08-18 18:50:00,
2013-08-18 14:55:00,66.9,64.5,30.32,SSE,150,0.0,0.0,92,0.01,,SCT,0.02,190.00,VWS V14.01,2013-08-18 18:55:00,
2013-08-18 15:00:00,67.0,64.6,30.31,WSW,251,0.0,0.0,92,0.01,,SCT,0.02,123.00,VWS V14.01,2013-08-18 19:00:00,
2013-08-18 15:05:00,67.0,64.6,30.31,WSW,251,0.0,0.0,92,0.01,,SCT,0.02,102.00,VWS V14.01,2013-08-18 19:05:00,
2013-08-18 15:10:00,67.0,64.6,30.31,SW,229,0.0,0.0,92,0.01,,SCT,0.02,63.00,VWS V14.01,2013-08-18 19:10:00,
2013-08-18 15:15:00,66.9,64.5,30.31,SW,228,0.0,0.0,92,0.01,,SCT,0.02,54.00,VWS V14.01,2013-08-18 19:15:00,
2013-08-18 15:20:00,66.9,64.5,30.31,WSW,244,0.0,0.0,92,0.01,,SCT,0.02,81.00,VWS V14.01,2013-08-18 19:20:00,
2013-08-18 15:25:00,66.9,64.5,30.30,WSW,244,0.0,0.0,92,0.01,,SCT,0.02,84.00,VWS V14.01,2013-08-18 19:25:00,
2013-08-18 15:30:00,67.0,64.9,30.30,WSW,244,0.0,0.0,93,0.01,,SCT,0.02,86.00,VWS V14.01,2013-08-18 19:30:00,
2013-08-18 15:35:00,67.0,64.9,30.30,WSW,243,0.0,0.0,93,0.01,,SCT,0.02,74.00,VWS V14.01,2013-08-18 19:35:00,
2013-08-18 15:40:00,67.0,64.9,30.30,WSW,243,0.0,0.0,93,0.01,,SCT,0.02,84.00,VWS V14.01,2013-08-18 19:40:00,
2013-08-18 15:45:00,67.1,65.0,30.30,WSW,243,0.0,0.0,93,0.01,,SCT,0.02,77.00,VWS V14.01,2013-08-18 19:45:00,
2013-08-18 15:50:00,67.1,65.0,30.31,WSW,243,0.0,0.0,93,0.01,,SCT,0.02,56.00,VWS V14.01,2013-08-18 19:50:00,
2013-08-18 15:55:00,67.1,65.0,30.31,WSW,243,0.0,0.0,93,0.00,,SCT,0.02,46.00,VWS V14.01,2013-08-18 19:55:00,
2013-08-18 16:00:00,67.2,65.1,30.30,SSW,195,0.0,0.0,93,0.01,,SCT,0.03,44.00,VWS V14.01,2013-08-18 20:00:00,
2013-08-18 16:05:00,67.2,64.8,30.30,SSW,201,0.0,0.0,92,0.01,,SCT,0.03,84.00,VWS V14.01,2013-08-18 20:05:00,
2013-08-18 16:10:00,67.3,65.2,30.30,SSW,198,0.0,0.0,93,0.01,,SCT,0.03,128.00,VWS V14.01,2013-08-18 20:10:00,
2013-08-18 16:15:00,67.3,65.2,30.30,SSW,201,0.0,0.0,93,0.01,,SCT,0.03,105.00,VWS V14.01,2013-08-18 20:15:00,
2013-08-18 16:20:00,67.4,65.0,30.30,SSW,200,0.0,0.0,92,0.01,,SCT,0.03,125.00,VWS V14.01,2013-08-18 20:20:00,
2013-08-18 16:25:00,67.5,65.1,30.30,SSW,204,0.0,0.0,92,0.01,,SCT,0.03,135.00,VWS V14.01,2013-08-18 20:25:00,
2013-08-18 16:30:00,67.6,64.9,30.30,SSW,210,0.0,0.0,91,0.01,,SCT,0.03,148.00,VWS V14.01,2013-08-18 20:30:00,
2013-08-18 16:35:00,67.7,65.0,30.29,South,190,0.0,0.0,91,0.01,,SCT,0.03,123.00,VWS V14.01,2013-08-18 20:35:00,
2013-08-18 16:40:00,67.9,65.2,30.30,South,190,0.0,0.0,91,0.01,,SCT,0.03,116.00,VWS V14.01,2013-08-18 20:40:00,
2013-08-18 16:45:00,68.1,65.4,30.30,South,190,0.0,0.0,91,0.01,,SCT,0.03,105.00,VWS V14.01,2013-08-18 20:45:00,
2013-08-18 16:50:00,68.1,65.1,30.29,South,190,0.0,0.0,90,0.01,,SCT,0.03,105.00,VWS V14.01,2013-08-18 20:50:00,
2013-08-18 16:55:00,68.1,65.1,30.29,South,190,0.0,0.0,90,0.01,,SCT,0.03,134.00,VWS V14.01,2013-08-18 20:55:00,
2013-08-18 17:00:00,68.1,65.4,30.29,West,259,0.0,0.0,91,0.01,,SCT,0.03,142.00,VWS V14.01,2013-08-18 21:00:00,
2013-08-18 17:05:00,68.1,65.4,30.29,West,259,0.0,0.0,91,0.01,,SCT,0.03,181.00,VWS V14.01,2013-08-18 21:05:00,
2013-08-18 17:10:00,68.1,65.4,30.28,WSW,246,0.0,0.0,91,0.01,,SCT,0.03,190.00,VWS V14.01,2013-08-18 21:10:00,
2013-08-18 17:15:00,68.2,65.5,30.29,WSW,246,0.0,0.0,91,0.01,,SCT,0.03,141.00,VWS V14.01,2013-08-18 21:15:00,
2013-08-18 17:20:00,68.2,65.2,30.29,WSW,246,0.0,0.0,90,0.01,,SCT,0.03,134.00,VWS V14.01,2013-08-18 21:20:00,
2013-08-18 17:25:00,68.3,65.3,30.29,WSW,246,0.0,0.0,90,0.01,,SCT,0.03,130.00,VWS V14.01,2013-08-18 21:25:00,
2013-08-18 17:30:00,68.4,65.7,30.29,WSW,246,0.0,0.0,91,0.01,,SCT,0.03,137.00,VWS V14.01,2013-08-18 21:30:00,
2013-08-18 17:35:00,68.5,65.5,30.29,SW,219,0.0,0.0,90,0.01,,SCT,0.03,167.00,VWS V14.01,2013-08-18 21:35:00,
2013-08-18 17:40:00,68.6,65.6,30.29,SW,233,0.0,0.0,90,0.01,,SCT,0.03,218.00,VWS V14.01,2013-08-18 21:40:00,
2013-08-18 17:45:00,68.6,65.6,30.29,SW,232,0.0,0.0,90,0.02,,SCT,0.04,139.00,VWS V14.01,2013-08-18 21:45:00,
2013-08-18 17:50:00,68.6,65.6,30.29,SW,224,0.0,0.0,90,0.02,,SCT,0.04,62.00,VWS V14.01,2013-08-18 21:50:00,
2013-08-18 17:55:00,68.3,64.9,30.29,SSW,211,0.0,0.0,89,0.01,,SCT,0.04,69.00,VWS V14.01,2013-08-18 21:55:00,
2013-08-18 18:00:00,68.2,65.2,30.30,SSW,200,0.0,0.0,90,0.01,,SCT,0.04,62.00,VWS V14.01,2013-08-18 22:00:00,
2013-08-18 18:05:00,68.1,65.1,30.29,SSW,201,0.0,0.0,90,0.01,,SCT,0.04,77.00,VWS V14.01,2013-08-18 22:05:00,
2013-08-18 18:10:00,68.1,65.4,30.29,SSW,211,0.0,0.0,91,0.01,,SCT,0.04,44.00,VWS V14.01,2013-08-18 22:10:00,
2013-08-18 18:15:00,67.9,65.2,30.29,SSW,209,0.0,0.0,91,0.01,,SCT,0.04,46.00,VWS V14.01,2013-08-18 22:15:00,
2013-08-18 18:20:00,67.6,64.9,30.29,SSW,203,0.0,0.0,91,0.01,,SCT,0.04,76.00,VWS V14.01,2013-08-18 22:20:00,
2013-08-18 18:25:00,67.5,64.8,30.29,SSW,211,0.0,0.0,91,0.01,,SCT,0.04,70.00,VWS V14.01,2013-08-18 22:25:00,
2013-08-18 18:30:00,67.5,64.8,30.29,South,180,0.0,0.0,91,0.01,,SCT,0.04,54.00,VWS V14.01,2013-08-18 22:30:00,
2013-08-18 18:35:00,67.5,64.8,30.30,SSW,200,0.0,0.0,91,0.01,,SCT,0.04,39.00,VWS V14.01,2013-08-18 22:35:00,
2013-08-18 18:40:00,67.5,64.8,30.30,South,191,0.0,0.0,91,0.01,,SCT,0.04,30.00,VWS V14.01,2013-08-18 22:40:00,
2013-08-18 18:45:00,67.5,64.8,30.29,South,188,0.0,0.0,91,0.01,,SCT,0.04,30.00,VWS V14.01,2013-08-18 22:45:00,
2013-08-18 18:50:00,67.5,64.8,30.30,SSW,206,0.0,0.0,91,0.01,,SCT,0.04,30.00,VWS V14.01,2013-08-18 22:50:00,
2013-08-18 18:55:00,67.6,64.9,30.30,SSW,206,0.0,0.0,91,0.00,,SCT,0.04,25.00,VWS V14.01,2013-08-18 22:55:00,
2013-08-18 19:00:00,67.6,65.2,30.30,SSW,206,0.0,0.0,92,0.00,,SCT,0.04,21.00,VWS V14.01,2013-08-18 23:00:00,
2013-08-18 19:05:00,67.6,64.9,30.30,SSE,161,0.0,0.0,91,0.00,,SCT,0.04,16.00,VWS V14.01,2013-08-18 23:05:00,
2013-08-18 19:10:00,67.5,64.8,30.30,SSE,154,0.0,0.0,91,0.00,,SCT,0.04,12.00,VWS V14.01,2013-08-18 23:10:00,
2013-08-18 19:15:00,67.5,64.8,30.30,SSE,154,0.0,0.0,91,0.00,,SCT,0.04,9.00,VWS V14.01,2013-08-18 23:15:00,
2013-08-18 19:20:00,67.5,64.8,30.31,SSE,154,0.0,0.0,91,0.01,,SCT,0.05,5.00,VWS V14.01,2013-08-18 23:20:00,
2013-08-18 19:25:00,67.5,64.8,30.31,SSE,154,0.0,0.0,91,0.01,,SCT,0.05,5.00,VWS V14.01,2013-08-18 23:25:00,
2013-08-18 19:30:00,67.5,64.8,30.31,SSE,153,0.0,0.0,91,0.01,,SCT,0.05,0.00,VWS V14.01,2013-08-18 23:30:00,
2013-08-18 19:35:00,67.5,64.8,30.31,SSE,153,0.0,0.0,91,0.01,,SCT,0.05,0.00,VWS V14.01,2013-08-18 23:35:00,
2013-08-18 19:40:00,67.5,65.1,30.31,SSE,153,0.0,0.0,92,0.01,,SCT,0.05,0.00,VWS V14.01,2013-08-18 23:40:00,
2013-08-18 19:45:00,67.6,65.2,30.31,SSE,154,0.0,0.0,92,0.01,,SCT,0.05,0.00,VWS V14.01,2013-08-18 23:45:00,
2013-08-18 19:50:00,67.6,65.5,30.31,SSE,153,0.0,0.0,93,0.01,,SCT,0.05,0.00,VWS V14.01,2013-08-18 23:50:00,
2013-08-18 19:55:00,67.6,65.5,30.31,SSE,154,0.0,0.0,93,0.01,,SCT,0.05,0.00,VWS V14.01,2013-08-18 23:55:00,
2013-08-18 20:00:00,67.5,65.4,30.31,SSE,153,0.0,0.0,93,0.01,,SCT,0.05,0.00,VWS V14.01,2013-08-19 00:00:00,
2013-08-18 20:05:00,67.5,65.7,30.31,SSE,153,0.0,0.0,94,0.01,,SCT,0.05,0.00,VWS V14.01,2013-08-19 00:05:00,
2013-08-18 20:10:00,67.4,65.6,30.31,SSE,153,0.0,0.0,94,0.01,,SCT,0.05,0.00,VWS V14.01,2013-08-19 00:10:00,
2013-08-18 20:15:00,67.2,65.1,30.30,SSE,153,0.0,0.0,93,0.01,,SCT,0.05,0.00,VWS V14.01,2013-08-19 00:15:00,
2013-08-18 20:20:00,67.1,65.3,30.30,SSE,153,0.0,0.0,94,0.01,,SCT,0.05,0.00,VWS V14.01,2013-08-19 00:20:00,
2013-08-18 20:25:00,66.9,65.1,30.29,SSW,200,0.0,0.0,94,0.01,,SCT,0.05,0.00,VWS V14.01,2013-08-19 00:25:00,
2013-08-18 20:30:00,66.6,64.8,30.30,SSW,209,0.0,0.0,94,0.01,,SCT,0.05,0.00,VWS V14.01,2013-08-19 00:30:00,
2013-08-18 20:35:00,66.5,64.7,30.30,SW,232,0.0,0.0,94,0.01,,SCT,0.05,0.00,VWS V14.01,2013-08-19 00:35:00,
2013-08-18 20:40:00,66.4,64.9,30.30,WSW,237,0.0,0.0,95,0.01,,SCT,0.05,0.00,VWS V14.01,2013-08-19 00:40:00,
2013-08-18 20:45:00,66.3,64.8,30.30,WSW,237,0.0,0.0,95,0.01,,SCT,0.05,0.00,VWS V14.01,2013-08-19 00:45:00,
2013-08-18 20:50:00,66.3,64.8,30.30,WSW,237,0.0,0.0,95,0.01,,SCT,0.05,0.00,VWS V14.01,2013-08-19 00:50:00,
2013-08-18 20:55:00,66.2,64.7,30.30,WSW,237,0.0,0.0,95,0.00,,SCT,0.05,0.00,VWS V14.01,2013-08-19 00:55:00,
2013-08-18 21:00:00,66.1,64.6,30.30,WSW,237,0.0,0.0,95,0.00,,SCT,0.05,0.00,VWS V14.01,2013-08-19 01:00:00,
2013-08-18 21:05:00,66.1,64.6,30.31,WSW,237,0.0,0.0,95,0.00,,SCT,0.05,0.00,VWS V14.01,2013-08-19 01:05:00,
2013-08-18 21:10:00,66.0,64.5,30.31,WSW,237,0.0,0.0,95,0.00,,SCT,0.05,0.00,VWS V14.01,2013-08-19 01:10:00,
2013-08-18 21:15:00,65.9,64.4,30.32,NNE,24,0.0,0.0,95,0.00,,SCT,0.05,0.00,VWS V14.01,2013-08-19 01:15:00,
2013-08-18 21:20:00,65.9,64.4,30.32,North,360,0.0,0.0,95,0.00,,SCT,0.05,0.00,VWS V14.01,2013-08-19 01:20:00,
2013-08-18 21:25:00,65.9,64.4,30.32,North,360,0.0,0.0,95,0.00,,SCT,0.05,0.00,VWS V14.01,2013-08-19 01:25:00,
2013-08-18 21:30:00,65.9,64.4,30.32,NNE,18,0.0,0.0,95,0.00,,SCT,0.05,0.00,VWS V14.01,2013-08-19 01:30:00,
2013-08-18 21:35:00,66.0,64.5,30.32,ENE,60,0.0,0.0,95,0.00,,SCT,0.05,0.00,VWS V14.01,2013-08-19 01:35:00,
2013-08-18 21:40:00,66.0,64.5,30.32,ENE,60,0.0,0.0,95,0.00,,SCT,0.05,0.00,VWS V14.01,2013-08-19 01:40:00,
2013-08-18 21:45:00,66.2,64.7,30.32,East,85,0.0,0.0,95,0.00,,SCT,0.05,0.00,VWS V14.01,2013-08-19 01:45:00,
2013-08-18 21:50:00,66.2,64.7,30.33,East,81,0.0,0.0,95,0.00,,SCT,0.05,0.00,VWS V14.01,2013-08-19 01:50:00,
2013-08-18 21:55:00,66.2,64.7,30.33,East,80,0.0,0.0,95,0.00,,SCT,0.05,0.00,VWS V14.01,2013-08-19 01:55:00,
2013-08-18 22:00:00,66.1,64.6,30.33,ENE,78,0.0,0.0,95,0.00,,SCT,0.05,0.00,VWS V14.01,2013-08-19 02:00:00,
2013-08-18 22:05:00,66.1,64.6,30.33,NE,46,0.0,0.0,95,0.00,,SCT,0.05,0.00,VWS V14.01,2013-08-19 02:05:00,
2013-08-18 22:10:00,66.1,64.9,30.32,NNE,26,0.0,0.0,96,0.00,,SCT,0.05,0.00,VWS V14.01,2013-08-19 02:10:00,
2013-08-18 22:15:00,66.0,64.8,30.33,NNE,26,0.0,0.0,96,0.00,,SCT,0.05,0.00,VWS V14.01,2013-08-19 02:15:00,
2013-08-18 22:20:00,65.9,64.7,30.32,NNE,26,0.0,0.0,96,0.01,,SCT,0.06,0.00,VWS V14.01,2013-08-19 02:20:00,
2013-08-18 22:25:00,65.8,64.6,30.33,NNE,26,0.0,0.0,96,0.01,,SCT,0.06,0.00,VWS V14.01,2013-08-19 02:25:00,
2013-08-18 22:30:00,65.8,64.6,30.33,NNE,26,0.0,0.0,96,0.01,,SCT,0.06,0.00,VWS V14.01,2013-08-19 02:30:00,
2013-08-18 22:35:00,65.8,64.6,30.33,NNE,26,0.0,0.0,96,0.01,,SCT,0.06,0.00,VWS V14.01,2013-08-19 02:35:00,
2013-08-18 22:40:00,65.8,64.6,30.32,North,5,0.0,0.0,96,0.01,,SCT,0.06,0.00,VWS V14.01,2013-08-19 02:40:00,
2013-08-18 22:45:00,65.8,64.6,30.33,North,5,0.0,0.0,96,0.01,,SCT,0.06,0.00,VWS V14.01,2013-08-19 02:45:00,
2013-08-18 22:50:00,65.8,64.6,30.32,North,5,0.0,0.0,96,0.01,,SCT,0.06,0.00,VWS V14.01,2013-08-19 02:50:00,
2013-08-18 22:55:00,65.8,64.6,30.32,North,5,0.0,0.0,96,0.01,,SCT,0.06,0.00,VWS V14.01,2013-08-19 02:55:00,
2013-08-18 23:00:00,65.8,64.6,30.32,North,5,0.0,0.0,96,0.01,,SCT,0.06,0.00,VWS V14.01,2013-08-19 03:00:00,
2013-08-18 23:05:00,65.8,64.6,30.32,North,5,0.0,0.0,96,0.01,,SCT,0.06,0.00,VWS V14.01,2013-08-19 03:05:00,
2013-08-18 23:10:00,65.9,64.7,30.32,North,5,0.0,0.0,96,0.01,,SCT,0.06,0.00,VWS V14.01,2013-08-19 03:10:00,
2013-08-18 23:15:00,65.8,64.6,30.32,North,5,0.0,0.0,96,0.01,,SCT,0.06,0.00,VWS V14.01,2013-08-19 03:15:00,
2013-08-18 23:20:00,65.8,64.6,30.32,North,5,0.0,0.0,96,0.01,,SCT,0.06,0.00,VWS V14.01,2013-08-19 03:20:00,
2013-08-18 23:25:00,65.7,64.5,30.32,North,5,0.0,0.0,96,0.01,,SCT,0.06,0.00,VWS V14.01,2013-08-19 03:25:00,
2013-08-18 23:30:00,65.7,64.5,30.32,North,5,0.0,0.0,96,0.01,,SCT,0.06,0.00,VWS V14.01,2013-08-19 03:30:00,
2013-08-18 23:35:00,65.6,64.4,30.31,North,5,0.0,0.0,96,0.01,,SCT,0.06,0.00,VWS V14.01,2013-08-19 03:35:00,
2013-08-18 23:40:00,65.6,64.4,30.31,North,5,0.0,0.0,96,0.01,,SCT,0.06,0.00,VWS V14.01,2013-08-19 03:40:00,
2013-08-18 23:45:00,65.6,64.4,30.31,North,5,0.0,0.0,96,0.01,,SCT,0.06,0.00,VWS V14.01,2013-08-19 03:45:00,
2013-08-18 23:50:00,65.6,64.4,30.31,North,5,0.0,0.0,96,0.01,,SCT,0.06,0.00,VWS V14.01,2013-08-19 03:50:00,
2013-08-18 23:55:00,65.6,64.4,30.31,North,5,0.0,0.0,96,0.00,,SCT,0.00,0.00,VWS V14.01,2013-08-19 03:55:00,